Terug naar catalogus

THOR ABLESTAR DEB

ActiefLEO
NORAD 475·DEBRIS·🇺🇸 United States

Gelanceerd Jun 29, 1961 vanaf Cape Canaveral Space Force Station

Loading…

Volgende Passages (komende 24 uur)

TLE

VersSource: Space-Track

Epoch: Sep 14, 2026, 16:19 UTC

1 00475U 61015FM  26257.68054996  .00002047  00000-0  84428-3 0  9990
2 00475  66.2199 141.1180 0130592  50.0141 311.2330 14.24328870300531

Volg THOR ABLESTAR DEB in realtime met AllMySat

Download on the App Store